User: anonymous   Login
Location: Unspecified
(0.0000°N, 0.0000°E)
Time: 02:49:14
(UTC+01:00)
Language:

Ariane H10 - Orbit

View from above orbital plane
View from above orbital plane
View from above satellite
View from above satellite

Ground track
Ground track

The orbit data is extracted from the following two-line orbital elements,

1 21815U 91084C   14297.24337701  .00000130  00000-0  40014-3 0  6644
2 21815 003.8698 116.6874 7188546 009.4127 348.1078 02.31132247189934
Epoch (UTC): 24 October 2014 05:50:27
Eccentricity: 0.7188546
inclination: 3.8698°
perigee height: 415 km
apogee height: 35155 km
right ascension of ascending node: 116.6874°
argument of perigee: 9.4127°
revolutions per day: 2.31132247
mean anomaly at epoch: 348.1078°
orbit number at epoch: 18993

The dashed part of the orbit path shows where the satellite is in the earth's shadow,  

DLR